timestamp,surface_pressure_avg,surface_temp_avg,battery_voltage,lat,long
2018-12-17 00:00:00+00:00,248.4965,2.7,12.97,47.84626,-54.09684
2018-12-17 00:10:00+00:00,246.8897,2.7,12.97,47.84626,-54.09684
2018-12-17 00:20:00+00:00,241.0964,2.68,13.05,47.84626,-54.09684
2018-12-17 00:30:00+00:00,236.0664,2.66,13.05,47.84626,-54.09684
2018-12-17 00:40:00+00:00,239.3114,2.64,13.05,47.84626,-54.09684
2018-12-17 00:50:00+00:00,246.1731,2.66,13.05,47.84626,-54.09684
2018-12-17 01:00:00+00:00,247.4498,2.66,12.97,47.84626,-54.09684
2018-12-17 01:10:00+00:00,247.6564,2.66,12.89,47.84626,-54.09684
2018-12-17 01:20:00+00:00,251.5531,2.63,12.97,47.84626,-54.09684
2018-12-17 01:30:00+00:00,252.0298,2.61,12.97,47.84626,-54.09684
2018-12-17 01:40:00+00:00,247.2764,2.6,13.05,47.84626,-54.09684
2018-12-17 01:50:00+00:00,246.2197,2.5,13.05,47.84626,-54.09684
2018-12-17 02:00:00+00:00,245.9431,2.39,12.97,47.84626,-54.09684
2018-12-17 02:10:00+00:00,244.4065,2.3,12.89,47.84626,-54.09684
2018-12-17 02:20:00+00:00,243.9298,2.32,12.97,47.84626,-54.09684
2018-12-17 02:30:00+00:00,249.4431,2.33,12.97,47.84626,-54.09684
2018-12-17 02:40:00+00:00,258.3431,2.38,13.05,47.84626,-54.09684
2018-12-17 02:50:00+00:00,266.1381,2.4,13.05,47.84626,-54.09684
2018-12-17 03:00:00+00:00,267.1814,2.4,12.97,47.84626,-54.09684
2018-12-17 03:10:00+00:00,267.7081,2.36,12.89,47.84626,-54.09684
2018-12-17 03:20:00+00:00,273.3981,2.33,12.97,47.84626,-54.09684
2018-12-17 03:30:00+00:00,274.803,2.33,12.97,47.84626,-54.09684
2018-12-17 03:40:00+00:00,271.4664,2.3,12.97,47.84626,-54.09684
2018-12-17 03:50:00+00:00,273.2814,2.3,13.05,47.84626,-54.09684
2018-12-17 04:00:00+00:00,278.423,2.2,12.97,47.84626,-54.09684
2018-12-17 04:10:00+00:00,281.8248,2.25,12.89,47.84626,-54.09684
2018-12-17 04:20:00+00:00,288.5264,2.3,12.97,47.84626,-54.09684
2018-12-17 04:30:00+00:00,296.5663,2.4,12.97,47.84626,-54.09684
2018-12-17 04:40:00+00:00,303.5897,2.63,12.97,47.84626,-54.09684
2018-12-17 04:50:00+00:00,307.4796,2.7,12.97,47.84626,-54.09684
2018-12-17 05:00:00+00:00,311.5213,2.78,12.89,47.84626,-54.09684
2018-12-17 05:10:00+00:00,315.228,2.8,12.81,47.84626,-54.09684
2018-12-17 05:20:00+00:00,314.858,2.7,12.97,47.84626,-54.09684
2018-12-17 05:30:00+00:00,314.213,2.4,12.97,47.84626,-54.09684
2018-12-17 05:40:00+00:00,316.2046,2.31,12.97,47.84626,-54.09684
2018-12-17 05:50:00+00:00,320.1813,2.7,12.97,47.84626,-54.09684
2018-12-17 06:00:00+00:00,319.5047,2.9,12.89,47.84626,-54.09684
2018-12-17 06:10:00+00:00,321.8831,2.5,12.81,47.84626,-54.09684
2018-12-17 06:20:00+00:00,322.3297,2.5,12.97,47.84626,-54.09684
2018-12-17 06:30:00+00:00,325.9147,2.68,12.97,47.84626,-54.09684
2018-12-17 06:40:00+00:00,333.0564,2.6,12.97,47.84626,-54.09684
2018-12-17 06:50:00+00:00,331.8312,2.59,12.97,47.84626,-54.09684
2018-12-17 07:00:00+00:00,324.2562,1.9,12.89,47.84626,-54.09684
2018-12-17 07:10:00+00:00,322.3513,2.18,12.81,47.84626,-54.09684
2018-12-17 07:20:00+00:00,330.923,2.9,12.89,47.84626,-54.09684
2018-12-17 07:30:00+00:00,330.9246,2.8,12.97,47.84626,-54.09684
2018-12-17 07:40:00+00:00,327.938,2.15,12.97,47.84626,-54.09684
2018-12-17 07:50:00+00:00,327.803,2.0,12.97,47.84626,-54.09684
2018-12-17 08:00:00+00:00,325.5463,2.08,12.89,47.84626,-54.09684
2018-12-17 08:10:00+00:00,319.1047,2.0,12.81,47.84626,-54.09684
2018-12-17 08:20:00+00:00,310.223,1.88,12.89,47.84626,-54.09684
2018-12-17 08:30:00+00:00,308.8214,1.83,12.89,47.84626,-54.09684
2018-12-17 08:40:00+00:00,305.6813,1.92,12.97,47.84626,-54.09684
2018-12-17 08:50:00+00:00,298.6447,1.9,12.97,47.84626,-54.09684
2018-12-17 09:00:00+00:00,290.938,1.8,12.89,47.84626,-54.09684
2018-12-17 09:10:00+00:00,291.8597,1.8,12.81,47.84626,-54.09684
2018-12-17 09:20:00+00:00,285.2546,1.8,12.89,47.84626,-54.09684
2018-12-17 09:30:00+00:00,277.7097,1.78,12.89,47.84626,-54.09684
2018-12-17 09:40:00+00:00,277.8797,1.7,12.97,47.84626,-54.09684
2018-12-17 09:50:00+00:00,277.4447,1.69,12.97,47.84626,-54.09684
2018-12-17 10:00:00+00:00,271.0631,1.7,12.89,47.84626,-54.09684
2018-12-17 10:10:00+00:00,271.0398,1.7,12.81,47.84626,-54.09684
2018-12-17 10:20:00+00:00,270.9497,1.79,12.89,47.84626,-54.09684
2018-12-17 10:30:00+00:00,264.3197,1.79,12.89,47.84626,-54.09684
2018-12-17 10:40:00+00:00,255.4464,1.77,12.97,47.84626,-54.09684
2018-12-17 10:50:00+00:00,256.3448,1.75,12.97,47.84626,-54.09684
2018-12-17 11:00:00+00:00,255.1547,1.78,12.81,47.84626,-54.09684
2018-12-17 11:10:00+00:00,245.7048,1.78,12.81,47.84626,-54.09684
2018-12-17 11:20:00+00:00,238.1548,1.79,12.89,47.84626,-54.09684
2018-12-17 11:30:00+00:00,245.648,1.8,13.05,47.84626,-54.09684
2018-12-17 11:40:00+00:00,246.2248,1.8,13.44,47.84626,-54.09684
2018-12-17 11:50:00+00:00,237.1581,1.82,14.24,47.84626,-54.09684
2018-12-17 12:00:00+00:00,231.6564,1.88,15.35,47.84626,-54.09684
2018-12-17 12:10:00+00:00,235.1264,1.9,16.63,47.84626,-54.09684
2018-12-17 12:20:00+00:00,234.0031,1.9,16.87,47.84626,-54.09684
2018-12-17 12:30:00+00:00,227.6898,1.99,16.87,47.84626,-54.09684
2018-12-17 12:40:00+00:00,226.4231,2.0,16.87,47.84626,-54.09684
2018-12-17 12:50:00+00:00,222.0297,2.07,16.23,47.84626,-54.09684
2018-12-17 13:00:00+00:00,218.0581,2.1,15.27,47.84626,-54.09684
2018-12-17 13:10:00+00:00,219.2831,2.12,15.35,47.84626,-54.09684
2018-12-17 13:20:00+00:00,218.9148,2.2,15.6,47.84626,-54.09684
2018-12-17 13:30:00+00:00,216.2681,2.2,15.44,47.84626,-54.09684
2018-12-17 13:40:00+00:00,221.8581,2.1,15.44,47.84626,-54.09684
2018-12-17 13:50:00+00:00,225.7032,2.0,15.35,47.84626,-54.09684
2018-12-17 14:00:00+00:00,225.0197,1.8,15.11,47.84626,-54.09684
2018-12-17 14:10:00+00:00,224.4648,1.86,15.11,47.84626,-54.09684
2018-12-17 14:20:00+00:00,229.7465,1.93,15.27,47.84626,-54.09684
2018-12-17 14:30:00+00:00,231.7481,2.0,15.2,47.84626,-54.09684
2018-12-17 14:40:00+00:00,229.5648,1.9,15.2,47.84626,-54.09684
2018-12-17 14:50:00+00:00,230.9581,1.85,14.72,47.84626,-54.09684
2018-12-17 15:00:00+00:00,238.1215,1.84,14.56,47.84626,-54.09684
2018-12-17 15:10:00+00:00,240.3498,1.9,14.48,47.84626,-54.09684
2018-12-17 15:20:00+00:00,237.7214,1.97,14.56,47.84626,-54.09684
2018-12-17 15:30:00+00:00,241.5231,2.07,14.64,47.84626,-54.09684
2018-12-17 15:40:00+00:00,251.6114,2.2,14.72,47.84626,-54.09684
2018-12-17 15:50:00+00:00,259.3214,2.42,14.8,47.84626,-54.09684
2018-12-17 16:00:00+00:00,260.5597,2.53,14.64,47.84626,-54.09684
2018-12-17 16:10:00+00:00,259.2047,2.5,15.04,47.84626,-54.09684
2018-12-17 16:20:00+00:00,265.6097,2.5,15.11,47.84626,-54.09684
2018-12-17 16:30:00+00:00,274.0881,2.53,14.8,47.84626,-54.09684
2018-12-17 16:40:00+00:00,277.9281,2.66,15.04,47.84626,-54.09684
2018-12-17 16:50:00+00:00,278.308,2.81,14.64,47.84626,-54.09684
2018-12-17 17:00:00+00:00,283.5064,2.93,14.48,47.84626,-54.09684
2018-12-17 17:10:00+00:00,288.4331,3.0,14.48,47.84626,-54.09684
2018-12-17 17:20:00+00:00,287.418,3.0,14.48,47.84626,-54.09684
2018-12-17 17:30:00+00:00,290.3463,3.0,14.56,47.84626,-54.09684
2018-12-17 17:40:00+00:00,295.7563,3.0,14.4,47.84626,-54.09684
2018-12-17 17:50:00+00:00,301.5247,3.0,14.32,47.84626,-54.09684
2018-12-17 18:00:00+00:00,301.9481,3.0,14.16,47.84626,-54.09684
2018-12-17 18:10:00+00:00,303.9246,3.0,14.08,47.84626,-54.09684
2018-12-17 18:20:00+00:00,308.0212,3.0,14.08,47.84626,-54.09684
2018-12-17 18:30:00+00:00,311.3113,3.0,14.08,47.84626,-54.09684
2018-12-17 18:40:00+00:00,313.0696,3.0,14.08,47.84626,-54.09684
2018-12-17 18:50:00+00:00,314.623,3.0,14.08,47.84626,-54.09684
2018-12-17 19:00:00+00:00,315.083,3.0,14.0,47.84626,-54.09684
2018-12-17 19:10:00+00:00,314.938,3.0,13.84,47.84626,-54.09684
2018-12-17 19:20:00+00:00,314.258,3.0,13.76,47.84626,-54.09684
2018-12-17 19:30:00+00:00,309.8248,3.0,13.68,47.84626,-54.09684
2018-12-17 19:40:00+00:00,303.8913,3.0,13.68,47.84626,-54.09684
2018-12-17 19:50:00+00:00,304.4413,3.0,13.6,47.84626,-54.09684
2018-12-17 20:00:00+00:00,305.1497,3.02,13.53,47.84626,-54.09684
2018-12-17 20:10:00+00:00,300.1713,3.07,13.37,47.84626,-54.09684
2018-12-17 20:20:00+00:00,296.323,3.09,13.37,47.84626,-54.09684
2018-12-17 20:30:00+00:00,296.2547,3.1,13.29,47.84626,-54.09684
2018-12-17 20:40:00+00:00,293.6514,3.1,13.29,47.84626,-54.09684
2018-12-17 20:50:00+00:00,293.7913,3.1,13.29,47.84626,-54.09684
2018-12-17 21:00:00+00:00,294.8547,3.1,13.21,47.84626,-54.09684
2018-12-17 21:10:00+00:00,292.878,3.15,13.05,47.84626,-54.09684
2018-12-17 21:20:00+00:00,289.3431,3.18,13.13,47.84626,-54.09684
2018-12-17 21:30:00+00:00,291.5114,3.18,13.05,47.84626,-54.09684
2018-12-17 21:40:00+00:00,289.4264,3.19,13.13,47.84626,-54.09684
2018-12-17 21:50:00+00:00,283.7197,3.2,13.13,47.84626,-54.09684
2018-12-17 22:00:00+00:00,275.8531,3.2,13.05,47.84626,-54.09684
2018-12-17 22:10:00+00:00,276.3881,3.1,12.97,47.84626,-54.09684
2018-12-17 22:20:00+00:00,272.4081,3.09,13.05,47.84626,-54.09684
2018-12-17 22:30:00+00:00,266.8764,3.1,13.05,47.84626,-54.09684
2018-12-17 22:40:00+00:00,261.083,3.1,13.05,47.84626,-54.09684
2018-12-17 22:50:00+00:00,261.2448,3.08,13.05,47.84626,-54.09684
2018-12-17 23:00:00+00:00,255.7264,3.02,12.97,47.84626,-54.09684
2018-12-17 23:10:00+00:00,247.5597,3.0,12.89,47.84626,-54.09684
2018-12-17 23:20:00+00:00,243.7531,3.0,12.97,47.84626,-54.09684
2018-12-17 23:30:00+00:00,243.4481,2.99,13.05,47.84626,-54.09684
2018-12-17 23:40:00+00:00,241.0297,3.0,13.05,47.84626,-54.09684
2018-12-17 23:50:00+00:00,234.1198,3.0,13.05,47.84626,-54.09684
